Location: Copiague Harbor
(40.6622°N, 73.3864°W)
Time: 14:04:57
(UTC+00:00)

Daily predictions for brighter satellites

Satellite Brightness Start Highest point End
(mag) Time Altitude Azimuth Time Altitude Azimuth Time Altitude Azimuth
Cosmos 1939 Rocket 3.2 21:51:00 10° SSE 21:54:57 46° ENE 21:58:52 10° N
H-2A R/B 3.0 21:51:16 10° ESE 21:55:26 25° ENE 21:59:32 10° NNE
Cosmos 1656 3.7 21:51:33 10° NNW 21:57:07 81° ENE 22:02:44 10° SSE
Cosmos 1812 4.4 21:56:17 10° ESE 21:58:26 15° E 22:00:36 10° NE
FengYun 1-2 T 4.3 21:53:41 10° SSE 21:59:12 66° ENE 22:04:43 10° N
COSMO-SKYMED 1 4.1 21:58:36 10° NE 22:01:31 17° E 22:04:24 10° SE
USA 276 2.2 22:02:07 10° NW 22:05:11 52° NNE 22:08:14 10° ESE
Cosmos 1763 Rocket 3.5 22:00:39 10° SSW 22:05:42 88° WNW 22:10:51 10° NNE
Cosmos 2034 Rocket 4.1 22:01:58 10° S 22:08:08 83° W 22:14:19 10° N
Meteor PRIRODA 4.1 22:05:28 10° S 22:09:04 65° W 22:12:41 10° NNW
Cosmos 1697 Rocket 2.8 22:03:53 10° NNW 22:09:21 50° ENE 22:14:48 10° SE
Cosmos 841 Rocket 3.9 22:06:34 10° S 22:11:26 43° ESE 22:16:17 10° NNE
Cosmos 1980 Rocket 3.0 22:08:15 10° N 22:13:09 29° NE 22:18:00 10° ESE
Cosmos 2369 4.2 22:07:59 10° N 22:13:16 37° ENE 22:18:30 10° SE
Cosmos 1602 3.9 22:13:20 10° N 22:17:05 48° E 22:20:50 10° SSE
Cosmos 1937 Rocket 3.7 22:12:32 10° N 22:17:41 48° ENE 22:22:47 10° SE
Meteor 1-25 Rocket 4.1 22:14:40 10° N 22:20:15 73° E 22:25:51 10° SSE
Cosmos 1782 3.0 22:16:55 10° SSE 22:20:46 49° E 22:24:39 10° NNE
Okean O Rocket 2.8 22:17:32 10° ESE 22:20:57 22° ENE 22:24:22 10° NNE
NOAA 6 4.0 22:16:47 10° SSE 22:21:56 84° ENE 22:27:05 10° NNW
SL-16 R/B 4.0 22:21:14 10° NNE 22:22:52 11° NE 22:23:09 11° NE
Cosmos 2082 Rocket 2.4 22:18:47 10° S 22:24:15 50° ESE 22:29:43 10° NE
Cosmos 1151 Rocket 3.9 22:20:53 10° SSE 22:24:36 29° E 22:28:22 10° NNE
Cosmos 1743 Rocket 3.7 22:20:58 10° N 22:25:18 78° W 22:29:37 10° S
Cosmos 990 Rocket 4.2 22:20:43 10° NNW 22:25:55 76° WSW 22:31:02 10° SSE
Meteor 2-21 4.5 22:20:46 10° N 22:26:44 55° E 22:32:37 10° SSE
USA 267 4.0 22:20:50 10° NE 22:26:59 46° NNW 22:33:08 10° W
ISS -2.1 22:25:24 10° NNW 22:28:00 20° NNE 22:29:11 17° NE
Cosmos 1634 Rocket 4.0 22:23:18 10° S 22:29:33 68° E 22:35:51 10° NNE
CORIOLIS 4.1 22:24:17 10° SSE 22:29:40 87° ENE 22:35:07 10° NNW
CZ-4B DEB 4.1 22:25:26 10° SSE 22:30:57 77° ENE 22:36:27 10° N
Cosmos 372 Rocket 4.4 22:26:23 10° N 22:31:18 40° ENE 22:36:13 10° SE
Cosmos 1340 Rocket 4.2 22:30:48 10° NNW 22:34:40 44° W 22:38:32 10° SSW
CZ-2D R/B 3.2 22:31:52 10° SSE 22:35:39 62° ENE 22:39:25 10° N
Cosmos 1666 Rocket 4.1 22:32:38 10° N 22:36:43 35° ENE 22:40:44 10° SE
Cosmos 2278 4.3 22:32:31 10° N 22:37:37 33° ENE 22:42:40 10° ESE
Cosmos 1328 Rocket 4.3 22:35:41 10° SSE 22:39:34 30° E 22:42:12 17° NE
Cosmos 2026 Rocket 3.9 22:33:44 10° N 22:39:54 78° E 22:45:57 10° S
MOS 1-B Rocket 4.1 22:35:34 10° NNE 22:41:32 70° ESE 22:48:21 10° S
COSMOS 2406 3.5 22:36:51 10° SSW 22:42:35 69° WNW 22:48:19 10° NNE
Lacrosse 5 rocket 3.3 22:41:27 10° N 22:43:18 13° NNE 22:43:18 13° NNE
CZ-2C R/B 3.5 22:41:36 10° S 22:43:36 13° SSE 22:45:28 10° SE
USA 229 DEB 4.0 22:37:19 10° NW 22:44:47 86° WSW 22:52:40 10° SSE
USA 229 4.0 22:37:25 10° NW 22:44:53 86° WSW 22:52:45 10° SSE
ARGOS 3.4 22:41:23 10° SE 22:46:30 44° ENE 22:51:37 10° N
COSMOS 2455 2.9 22:41:42 10° SSW 22:47:42 87° WNW 22:53:25 12° NNE
Cosmos 1833 Rocket 3.6 22:42:41 10° SW 22:48:05 48° WNW 22:53:32 10° NNE
Cosmos 858 Rocket 4.4 22:44:24 10° NNW 22:49:44 84° ENE 22:55:00 10° SSE
SKYMED 2 3.6 22:45:32 10° NNE 22:49:50 58° E 22:54:06 10° S
Cosmos 1500 3.0 22:46:42 10° N 22:50:27 81° E 22:54:09 10° S
Meteor 2-14 Rocket 4.4 22:44:29 10° N 22:50:38 87° E 22:56:42 10° S
ATLAS CENTAUR R/B 3.9 22:41:12 10° WSW 22:51:17 47° NW 22:54:53 15° NNE
Landsat 5 3.8 22:50:05 23° NE 22:52:10 41° E 22:55:54 10° S
Meteor 2-6 Rocket 4.4 22:49:14 10° SSE 22:54:47 48° E 23:00:12 10° NNE
SL-08 RB Rocket 4.2 22:52:04 10° SE 22:56:16 35° ENE 23:00:28 10° N
PAYLOAD B 4.4 22:52:57 10° SSE 22:58:34 81° WSW 23:04:12 10° NNW
USA 234 3.3 22:52:18 10° SE 22:58:51 83° SW 23:05:26 10° NW
Cosmos 1570 Rocket 4.0 22:54:39 10° S 22:59:49 64° ESE 23:03:29 19° NNE
Cosmos 540 Rocket 4.4 22:57:06 10° SW 23:02:01 47° WNW 23:06:57 10° N
CZ-4B R/B 3.0 22:59:06 10° SSE 23:04:33 80° ENE 23:09:55 10° NNW
Sich 1 3.6 23:01:26 10° NNW 23:05:39 57° W 23:09:53 10° S
GEOS 3 Rocket 4.3 23:05:32 30° ENE 23:06:11 31° NE 23:10:44 10° NNW
Cosmos 1814 Rocket 3.9 23:01:41 10° SSW 23:06:56 86° ESE 23:10:54 18° NNE
Cosmos 44 Rocket 4.5 23:04:47 10° N 23:08:01 25° NNE 23:08:01 25° NNE
CZ-2C R/B 2.5 23:05:25 10° NNE 23:10:38 87° WNW 23:15:48 10° SSW
Cosmos 1818 4.3 23:06:18 10° NNW 23:11:07 31° NE 23:11:07 31° NE
GPS 2-04 Rocket1 3.8 23:07:41 10° WSW 23:11:31 38° S 23:12:58 28° SE
Meteor 2-8 Rocket 4.4 23:05:38 10° S 23:11:42 68° E 23:17:50 10° NNE
Meteor 2-21 Rocket 4.4 23:06:34 10° N 23:12:41 85° W 23:18:43 10° S
Meteor 1-10 Rocket 4.4 23:08:04 10° SSE 23:13:39 51° E 23:16:43 25° NNE
Cosmos 1900 4.2 23:09:20 10° SSW 23:14:07 65° ESE 23:15:36 42° NE
NOSS 2-2 (D) 4.4 23:08:54 10° NNW 23:14:27 80° NE 23:22:15 10° SE
deb Chang Zheng 4 3.6 23:12:34 10° S 23:16:52 80° WSW 23:21:12 10° NNW
CZ-4C R/B 3.9 23:18:26 34° SSE 23:18:26 34° SSE 23:20:33 10° S
Cosmos 1666 2.6 23:16:20 10° N 23:20:04 81° W 23:23:46 10° S
Cosmos 1515 Rocket 4.2 23:16:29 10° SSE 23:19:38 38° SE 23:19:38 38° SE
Feng Yun 1-1 Rocket 4.3 23:19:47 10° SSE 23:25:37 65° ENE 23:31:27 10° N
CZ-4C R/B 2.9 23:22:18 10° NNW 23:29:44 70° NE 23:36:22 18° SE
Cosmos 2360 Rocket 4.4 23:27:31 10° N 23:27:34 10° N 23:27:34 10° N
Cosmos 2208 Rocket 4.1 23:27:26 10° SSW 23:32:49 82° WNW 23:35:28 32° NNE
Cosmos 1812 4.3 23:30:19 10° SW 23:33:50 34° WNW 23:36:51 13° NNW
H-2A R/B 3.4 23:29:48 10° SSW 23:34:39 39° W 23:39:25 10° NNW
COSMO-SKYMED 1 3.8 23:34:01 11° N 23:37:50 40° WNW 23:41:53 10° SW
Spot 2 4.3 23:41:46 10° SSE 23:46:52 84° ENE 23:52:03 10° NNW
Cosmos 921 Rocket 3.5 23:44:10 10° SSW 23:47:24 52° SW 23:47:24 52° SW
Cosmos 1633 Rocket 4.2 23:45:15 10° NNW 23:49:23 43° W 23:53:32 10° SSW
Cosmos 2322 Rocket 3.9 23:45:39 10° N 23:47:27 19° N 23:47:27 19° N
